Retour au catalogue

STARLINK-4625

ActifCommunicationsSSO
NORAD 53683·PAYLOAD·🇺🇸 United States

Lancé Aug 31, 2022 depuis Vandenberg Space Force Base

Loading…

Prochains Passages (prochaines 24 heures)

TLE

FraisSource: CelesTrak SupGP

Époque: Sep 14, 2026, 20:54 UTC

1 53683C 22105AM  26257.87131944 -.00033518  00000+0 -23277-2 0  2575
2 53683  97.2842 132.0108 0001818  77.5281 172.5333 15.05665081    14

Suivez STARLINK-4625 en temps réel avec AllMySat

Download on the App Store